Tracking 27111 objects as of 28-Mar-2023
HD Live streaming from Space Station
objects crossing your sky now

SL-14 R/B

Track SL-14 R/B now!
10-day predictions


NORAD ID: 19196
Int'l Code: 1988-046B
Perigee: 1,492.0 km
Apogee: 1,523.6 km
Inclination: 73.6 °
Period: 116.0 minutes
Semi major axis: 7878 km
RCS: 5.4646 m2 (large)
Launch date: May 30, 1988
Source: Commonwealth of Independent States (former USSR) (CIS)
Launch site: PLESETSK MISSILE AND SPACE COMPLEX (PKMTR)

Note: This is a ROCKET BODY
Your satellite tracking list
Your tracking list is empty




NASA's NSSDC Master Catalog

Two Line Element Set (TLE):
1 19196U 88046B   23086.85883177 -.00000028  00000-0 -76704-4 0  9998
2 19196  73.5982 226.3388 0020022  65.4378 102.4915 12.41398843578211
Source of the keplerian elements: AFSPC